sat.trackr.live / text

‹ back to catalog

STARLINK-3526

NORAD 51720 · 2022-016G

PAYLOAD ACTIVE UNKNOWN

§ Identity

Operator
Country
US
Launch date
2022-02-21
Launch site
AFETR
Launch vehicle
Mass (kg)
RCS (m²)

Purposes: comms

External: N2YO · Heavens-Above · Gunter

§ Orbital elements

Epoch: 2026-09-20T00:15:40.849344Z

Period
94.01 min
Inclination
53.1604°
Eccentricity
0.0001351
Mean motion
15.31708397 rev/d
Perigee alt
469.8 km
Apogee alt
471.6 km
Semi-major
6,848.9 km
B*
2.1705e-5
RAAN
162.1878°
Arg perigee
82.6778°
Mean anomaly
277.4377°
Rev number
25,295

§ Raw data

STARLINK-35261 51720U 22016G   26263.01088946  .00000309  00000+0  21705-4 0  99912 51720  53.1604 162.1878 0001351  82.6778 277.4377 15.31708397252951

JSON: /api/v1/satellites/51720 · /tle

For live sub-satellite position, see the globe view (requires WebGL).

§ Visibility from observer

Set your observer location to see the next 7 days of passes ≥ 10°. The values pass through the URL so the page stays shareable.

No JS? Fill the form by hand. The geolocation button needs JavaScript.